Regional Weather Roundup
Issued by NWS

Home | Current Version | Previous Version | Graphics & Text | Print | Product List | Glossary On
Versions: 1 2 3 4 5 6 7 8 9 10 11 12 13 14 15 16 17 18 19 20 21 22 23 24 25 26 27 28 29 30 31 32 33 34 35 36 37 38 39 40 41 42 43 44 45 46 47 48 49 50
000
ASUS43 KOAX 261210
RWRNE

WEATHER ROUNDUP FOR NEBRASKA
NATIONAL WEATHER SERVICE OMAHA NE
600 AM CST SUN FEB 26 2017

NOTES: SATELLITE DATA IS BEING USED TO AUGMENT CLOUD COVER ABOVE
       12000 FEET.
       "FAIR" INDICATES FEW OR NO CLOUDS BELOW 12,000 FEET WITH NO
       SIGNIFICANT WEATHER AND/OR OBSTRUCTIONS TO VISIBILITY.

  * THESE STATIONS DO NOT REPORT WEATHER SUCH AS RAIN...SNOW OR FOG.

NEZ001>004-019>022-054>056-261300-
NEBRASKA PANHANDLE

CITY           SKY/WX    TMP DP  RH WIND       PRES   REMARKS
SCOTTSBLUFF    CLOUDY     8   1  73 W10       29.82S WCI  -6
6HR MIN TEMP:   5; 6HR MAX TEMP:  14;

ALLIANCE       CLEAR      7   0  73 W13       29.78S WCI  -9
6HR MIN TEMP:   0; 6HR MAX TEMP:   9;

CHADRON        CLEAR      6  -2  69 W6        29.81R WCI  -4
6HR MIN TEMP:   6; 6HR MAX TEMP:  16;

KIMBALL        CLEAR      9   2  74 W5        29.80R WCI   1
SIDNEY         CLEAR     13   3  64 W13       29.82R WCI  -2
6HR MIN TEMP:  12; 6HR MAX TEMP:  20;

$$

NEZ057>060-069>072-079>082-261300-
SOUTHWEST NEBRASKA

CITY           SKY/WX    TMP DP  RH WIND       PRES   REMARKS
NORTH PLATTE   CLEAR     12   7  80 NW6       29.86R WCI   3
6HR MIN TEMP:  11; 6HR MAX TEMP:  23;

IMPERIAL       CLEAR     20  12  71 W7        29.87R WCI  11
6HR MIN TEMP:  19; 6HR MAX TEMP:  27;

LEXINGTON      CLEAR     22  13  70 W8        29.87R WCI  12
MCCOOK         CLEAR     18  14  84 SW6       29.90R WCI  10
6HR MIN TEMP:  18; 6HR MAX TEMP:  27;

OGALLALA       CLEAR     17   9  70 W7        29.85S WCI   7
$$

NEZ005>010-023>029-035>040-094-261300-
NORTH CENTRAL NEBRASKA

CITY           SKY/WX    TMP DP  RH WIND       PRES   REMARKS
VALENTINE      CLEAR      9   2  73 W9        29.80R WCI  -4
6HR MIN TEMP:   7; 6HR MAX TEMP:  12;

AINSWORTH      CLEAR     13   8  80 W3        29.80R
BROKEN BOW     CLEAR     20  10  65 W13       29.83R WCI   7
6HR MIN TEMP:  17; 6HR MAX TEMP:  24;

O`NEILL        CLEAR     18  10  71 W9        29.81R WCI   6
ORD            CLEAR     21   9  59 W9        29.83R WCI  11
6HR MIN TEMP:  17; 6HR MAX TEMP:  24;

THEDFORD       CLEAR     16   8  70 W10       29.81S WCI   3
$$

NEZ041-046>049-061>064-073>077-083>087-261300-
SOUTH CENTRAL NEBRASKA

CITY           SKY/WX    TMP DP  RH WIND       PRES   REMARKS
GRAND ISLAND   CLEAR     28  17  63 W10       29.87R WCI  19
6HR MIN TEMP:  28; 6HR MAX TEMP:  31;

AURORA         CLEAR     29  17  61 W13       29.87R WCI  19
HASTINGS       CLEAR     26  17  68 SW7       29.89R WCI  18
6HR MIN TEMP:  23; 6HR MAX TEMP:  36;

HEBRON         CLOUDY    35  23  61 S9        29.91R WCI  27
HOLDREGE       CLEAR     28  13  55 W9        29.88S WCI  19
KEARNEY *      CLEAR     28  12  50 W9        29.88R WCI  20
YORK           CLEAR     27  19  74 W9        29.87R WCI  17
$$

NEZ011>018-030>034-042>045-261300-
NORTHEAST NEBRASKA

CITY           SKY/WX    TMP DP  RH WIND       PRES   REMARKS
NORFOLK        CLEAR     20  11  68 W15       29.81S WCI   6
6HR MIN TEMP:  16; 6HR MAX TEMP:  25;

ALBION         CLEAR     20  10  66 CALM      29.83R
BLAIR          CLEAR     28  20  70 SW7       29.85S WCI  21
FREMONT        CLEAR     28  19  69 SW6       29.86R WCI  22
TEKAMAH        CLEAR     20  15  81 S9        29.86R WCI   9
6HR MIN TEMP:  20; 6HR MAX TEMP:  27;

WAYNE          CLEAR     16  10  78 SW9       29.82R WCI   5
$$

NEZ050>053-065>068-078-088>093-261300-
SOUTHEAST NEBRASKA

CITY           SKY/WX    TMP DP  RH WIND       PRES   REMARKS
LINCOLN        CLEAR     30  21  69 SW9       29.89S WCI  22
6HR MIN TEMP:  30; 6HR MAX TEMP:  35;

OMAHA EPPLEY   MOCLDY    33  20  58 SW7       29.87R WCI  27
6HR MIN TEMP:  31; 6HR MAX TEMP:  35;

BEATRICE       CLOUDY    35  22  59 SW13      29.91R WCI  26
FALLS CITY     MOCLDY    31  19  61 SW10      29.95R WCI  22
6HR MIN TEMP:  29; 6HR MAX TEMP:  34;

NEBRASKA CITY  MOCLDY    30  20  65 SW10      29.90S WCI  21
PLATTSMOUTH    CLEAR     31  19  62 SW8       29.88S WCI  23
$$

NEZ044-045-051>053-067-261300-
OMAHA AREA

CITY           SKY/WX    TMP DP  RH WIND       PRES   REMARKS
OMAHA EPPLEY   MOCLDY    33  20  58 SW7       29.87R WCI  27
6HR MIN TEMP:  31; 6HR MAX TEMP:  35;

BLAIR          CLEAR     28  20  70 SW7       29.85S WCI  21
FREMONT        CLEAR     28  19  69 SW6       29.86R WCI  22
MILLARD        CLEAR     32  23  70 CALM      29.88R
OFFUTT AFB     CLEAR     31  20  65 CALM      29.87S
PLATTSMOUTH    CLEAR     31  19  62 SW8       29.88S WCI  23
WAHOO          FAIR      27  20  75 SW8       29.87R WCI  18
$$



USA.gov is the U.S. government's official web portal to all federal, state and local government web resources and services.